Погода в Нише

Сербия     43°19′13″N   21°54′01″E
темп.,
°C
ветер,
м/с
пор.,
м/с
влажн.,
%
обл.,
%
осадки,
мм/ч
давл.,
гПа
погр.,
м
26 июля, пн
пн2623:00+20вюв22565 0.0 101722
02:00+18вюв33551 0.0 101642
05:00+17вюв33565 0.0 101736
08:00+24юв23375 0.0 1018335
11:00+33ююв12232 0.0 10171134
14:00+37всв121810 0.0 10142361
17:00+36св5320100 0.0 10132153
20:00+21в3481100 2.2 101955
27 июля, вт
вт2723:00+19ююв22784 0.0 101812
02:00+19юв227413 0.0 101814
05:00+18юв227290 0.0 101915
08:00+25ю11505 0.0 1019281
11:00+34юз22265 0.0 10171078
14:00+39зюз25150 0.0 10152927
17:00+38св35141 0.0 10143800
20:00+29в333320 0.0 101424
28 июля, ср
ср2823:00+25в22380 0.0 101618
02:00+23юв32400 0.0 101621
05:00+21вюв22430 0.0 101616
08:00+28зюз11300 0.0 1017298
11:00+36з11181 0.0 10161073
14:00+40сз24114 0.0 10134351
17:00+39св341291 0.0 10123574
20:00+24в4551100 0.1 101463
29 июля, чт
чт2923:00+24в114028 0.0 101512
02:00+22юв22421 0.0 101513
05:00+21вюв11450 0.0 101511
08:00+27зсз21321 0.0 1016306
11:00+34сз33225 0.0 10151096
14:00+39ссз45140 0.0 10133585
17:00+38с46130 0.0 10113620
20:00+29в332881 0.0 101226
30 июля, пт
пт3023:00+25в33355 0.0 101321
02:00+23вюв22375 0.0 101221
05:00+22вюв22390 0.0 101214
08:00+29ююз11260 0.0 1012315
11:00+37з23160 0.0 10101348
14:00+40сз35120 0.0 10084036
17:00+40ссв35114 0.0 10064453
20:00+30всв33274 0.0 100621